Regional Weather Roundup
Issued by NWS

Home | Current Version | Previous Version | Text Only | Print | Product List | Glossary Off
Versions: 1 2 3 4 5 6 7 8 9 10 11 12 13 14 15 16 17 18 19 20 21 22 23 24 25 26 27 28 29 30 31 32 33 34 35 36 37 38 39 40 41 42 43 44 45 46 47 48 49 50

796
ASUS43 KOAX 291502
RWRNE

WEATHER ROUNDUP FOR NEBRASKA
NATIONAL WEATHER SERVICE OMAHA NE
1000 AM CDT FRI APR 29 2016

NOTES: SATELLITE DATA IS BEING USED TO AUGMENT CLOUD COVER ABOVE
       12000 FEET.
       "FAIR" INDICATES FEW OR NO CLOUDS BELOW 12,000 FEET WITH NO
       SIGNIFICANT WEATHER AND/OR OBSTRUCTIONS TO VISIBILITY.

  * THESE STATIONS DO NOT REPORT WEATHER SUCH AS RAIN...SNOW OR FOG.

NEZ001>004-019>022-054>056-291600-
NEBRASKA PANHANDLE

CITY           SKY/WX    TMP DP  RH WIND       PRES   REMARKS
SCOTTSBLUFF    CLOUDY    40  35  83 NE9       30.03S WCI  34
ALLIANCE       CLOUDY    40  35  83 N12       30.01F WCI  33
CHADRON        CLOUDY    39  34  82 N5        30.07F
KIMBALL        CLOUDY    35  35  98 NE6       29.99F WCI  30
SIDNEY         CLOUDY    37  35  92 NE9       30.00S WCI  30
$$

NEZ057>060-069>072-079>082-291600-
SOUTHWEST NEBRASKA

CITY           SKY/WX    TMP DP  RH WIND       PRES   REMARKS
NORTH PLATTE   CLOUDY    42  36  79 N12       30.02F
IMPERIAL       CLOUDY    41  38  89 NE13      30.02R
LEXINGTON      CLOUDY    44  38  79 NE10      30.06R
MCCOOK         CLOUDY    43  39  86 E13       30.04R
$$

NEZ005>010-023>029-035>040-094-291600-
NORTH CENTRAL NEBRASKA

CITY           SKY/WX    TMP DP  RH WIND       PRES   REMARKS
VALENTINE      CLOUDY    42  37  82 N10       30.07R
BROKEN BOW     CLOUDY    43  38  82 N15       30.03F
ORD            CLOUDY    43  38  82 N15       30.04S
$$

NEZ041-046>049-061>064-073>077-083>087-291600-
SOUTH CENTRAL NEBRASKA

CITY           SKY/WX    TMP DP  RH WIND       PRES   REMARKS
GRAND ISLAND   CLOUDY    44  38  79 NE12      30.08R
AURORA         CLOUDY    44  40  88 E12       30.08R
HASTINGS       CLOUDY    43  38  82 NE12      30.07R
KEARNEY *      CLOUDY    43  37  81 NE14      30.07R
YORK           CLOUDY    45  39  81 E10       30.11R
$$

NEZ011>018-030>034-042>045-291600-
NORTHEAST NEBRASKA

CITY           SKY/WX    TMP DP  RH WIND       PRES   REMARKS
NORFOLK        CLOUDY    43  38  82 NE14      30.06S
ALBION         CLOUDY    44  38  78 NE14      30.06R
BLAIR          CLOUDY    46  41  83 NE9       30.10R
COLUMBUS *     CLOUDY    45  34  65 NE12      30.09R
FREMONT        CLOUDY    45  40  82 NE7       30.11R
TEKAMAH        CLOUDY    45  40  82 NE14      30.10R
$$

NEZ050>053-065>068-078-088>093-291600-
SOUTHEAST NEBRASKA

CITY           SKY/WX    TMP DP  RH WIND       PRES   REMARKS
LINCOLN        CLOUDY    47  38  71 E14       30.11R
OMAHA EPPLEY   CLOUDY    47  39  74 E9        30.12R
FALLS CITY     CLOUDY    48  42  80 NE9       30.07F
$$

NEZ044-045-051>053-067-291600-
OMAHA AREA

CITY           SKY/WX    TMP DP  RH WIND       PRES   REMARKS
OMAHA EPPLEY   CLOUDY    47  39  74 E9        30.12R
BLAIR          CLOUDY    46  41  83 NE9       30.10R
FREMONT        CLOUDY    45  40  82 NE7       30.11R
OFFUTT AFB     CLOUDY    46  39  77 E9        30.11R
$$




USA.gov is the U.S. government's official web portal to all federal, state and local government web resources and services.